User: anonymous   Login
Location: Unspecified
(40.5804°N, 0.0000°E)
Time: 02:59:13
(UTC+00:00)
Language:

BPA 1/SL-24 R/B - Orbit

View from above orbital plane
View from above orbital plane
View from above satellite
View from above satellite

Ground track
Ground track

The orbit is defined by the following mean orbital elements,

1 36600U          26088.19605843 +.00000000 +00000-0 +33696-4 0 00009
2 36600  98.2671 312.7875 0375166  99.3492  11.7770 13.72789477    05
Epoch (UTC): 29 March 2026 04:42:19
Eccentricity: 0.0375166
inclination: 98.2671°
perigee height: 713 km
apogee height: 1266 km
right ascension of ascending node: 312.7875°
argument of perigee: 99.3492°
revolutions per day: 13.72789477
mean anomaly at epoch: 11.7770°

The dashed part of the orbit path shows where the satellite is in the earth's shadow,  

DLR